Location: Spring Creek
(38.2870°N, 100.2160°W)
Time: 09:11:06
(UTC+00:00)

Helios 1B rocket - Pass Details

Date: 08 May 2021
Orbit: 573 x 583 km, 98.2° (Epoch: 21 June)

Event Time Altitude Azimuth Distance (km) Brightness Sun altitude
Rises 08:52:54 0° 2° (N) 2,813 6.8 -26.1°
Reaches altitude 10° 08:55:12 10° 353° (N) 1,908 5.6 -25.8°
Enters shadow 08:57:49 29° 321° (NW) 1,093 3.9 -25.5°
